Location: Andershausen
(51.8462°N, 9.8595°E)
Time: 06:52:54
(UTC+00:00)

CZ-4 R/B - Pass Details

Date: 18 November 2025
Orbit: 547 x 556 km, 97.6° (Epoch: 11 December)

Event Time Altitude Azimuth Distance (km) Brightness Sun altitude
Rises 16:59:48 0° 155° (SSE) 2,726 7.7 -14.2°
Reaches altitude 10° 17:01:56 10° 152° (SSE) 1,834 6.8 -14.6°
Maximum altitude 17:05:50 61° 72° (ENE) 636 4.3 -15.1°
Drops below altitude 10° 17:09:46 10° 352° (N) 1,843 7.0 -15.7°
Sets 17:11:55 0° 349° (N) 2,740 7.9 -16.1°
